Lapse_Rate
7.4 7.5 7.6 7.3 7.1 7.0 7.0 7.0 7.0 7.0 7.0 6.8 6.9 7.0 7.2 7.3 7.2 7.2 7.3 7.2 7.2 7.1 7.1 7.2 7.2 7.3 7.3 7.3 7.2 7.2 7.1 7.0
7.7 7.5 7.6 7.5 7.3 7.1 7.0 7.0 7.1 7.0 6.9 6.9 6.9 7.0 7.1 7.2 7.2 7.2 7.3 7.3 7.0 7.0 6.9 7.0 7.1 7.1 7.1 7.0 7.0 7.0 7.0 7.0
7.7 7.7 7.5 7.6 7.4 7.2 7.1 7.1 7.2 7.0 6.9 6.9 7.0 7.0 7.1 7.1 7.2 7.3 7.3 7.2 7.0 6.9 6.9 6.9 6.9 7.0 7.0 7.0 6.9 6.9 6.9 6.9
7.5 7.7 7.6 7.5 7.6 7.6 7.4 7.3 7.2 7.1 7.0 7.0 7.0 7.1 7.2 7.2 7.2 7.2 7.2 7.0 7.0 6.9 6.8 6.7 6.7 6.8 6.9 6.9 6.9 7.0 6.9 6.9
7.5 7.6 7.6 7.5 7.6 7.6 7.4 7.2 7.3 7.2 7.2 7.2 7.0 7.1 7.2 7.2 7.2 7.1 7.1 6.9 6.9 6.9 6.9 7.0 6.9 6.9 6.9 6.9 7.0 7.1 7.1 7.1
7.5 7.5 7.6 7.5 7.4 7.7 7.2 7.1 7.3 7.3 7.2 7.0 7.0 7.2 7.3 7.2 7.3 7.2 7.0 6.8 6.8 6.8 6.9 7.0 7.0 7.0 6.9 6.9 6.9 6.9 6.8 6.8
7.5 7.5 7.4 7.4 7.5 7.6 7.6 7.4 7.4 7.4 7.3 7.1 7.1 7.4 7.3 7.3 7.3 7.1 6.9 6.9 6.8 6.8 6.8 6.8 6.9 7.0 7.0 7.1 7.1 7.1 7.0 6.8
7.4 7.5 7.3 7.3 7.4 7.4 7.5 7.5 7.6 7.5 7.7 7.2 7.3 7.4 7.3 7.3 7.3 7.1 6.9 6.8 6.8 6.8 6.8 6.8 7.0 7.1 7.1 7.1 7.0 7.0 6.9 6.7
7.4 7.4 7.3 7.3 7.3 7.3 7.4 7.6 7.6 7.4 7.8 7.2 7.1 7.3 7.4 7.5 7.4 7.1 6.9 6.9 6.8 6.9 6.9 7.0 7.0 7.1 7.0 6.9 6.9 6.9 6.8 6.7
7.4 7.5 7.4 7.3 7.3 7.4 7.5 7.6 7.4 7.5 7.7 7.3 7.3 7.2 7.4 7.5 7.4 7.1 6.9 6.9 6.9 6.9 6.9 7.0 7.1 7.1 6.9 6.9 6.9 6.9 6.8 6.6
7.4 7.4 7.3 7.3 7.2 7.1 7.3 7.4 7.3 7.5 7.4 7.6 7.4 7.4 7.3 7.4 7.4 7.3 7.1 7.0 7.0 7.0 7.0 7.0 7.0 7.0 6.9 7.0 6.9 6.7 6.5 6.3
7.3 7.3 7.4 7.4 7.4 7.2 7.0 7.2 7.4 7.5 7.5 7.4 7.4 7.3 7.3 7.3 7.3 7.1 7.2 7.2 7.1 7.1 7.0 7.0 7.0 7.0 7.0 7.0 6.8 6.6 6.3 5.9
7.8 7.9 7.5 7.6 7.8 7.6 7.5 7.4 7.6 7.6 7.6 7.3 7.3 7.2 7.3 7.3 7.1 7.0 7.0 7.4 7.3 7.1 7.1 7.2 7.1 7.1 7.0 6.9 6.8 6.5 6.2 5.9
7.7 7.9 7.9 7.8 7.7 7.6 7.5 7.5 7.5 7.5 7.2 7.1 7.1 7.2 7.3 7.2 7.2 6.9 6.9 6.9 7.6 7.3 7.2 7.2 7.3 7.2 7.0 6.9 6.6 6.4 6.1 5.8
8.3 8.4 8.2 7.9 7.8 7.6 7.5 7.3 7.3 7.2 7.6 7.6 7.3 7.1 7.2 7.1 7.0 6.9 6.9 6.8 7.5 7.7 7.4 7.3 7.3 7.2 7.1 6.8 6.7 6.4 6.1 5.9
8.4 8.4 8.3 7.9 7.9 7.8 7.5 7.3 7.3 7.6 7.7 7.4 7.1 7.0 6.8 7.0 6.9 6.8 6.8 6.7 7.3 7.8 7.7 7.6 7.4 7.1 7.0 7.0 6.8 6.4 6.1 6.0
8.1 8.2 8.2 7.9 8.1 7.5 7.1 7.1 7.3 7.2 6.9 6.9 7.0 6.9 6.8 6.8 6.8 6.8 6.8 6.6 6.8 7.4 7.6 7.4 7.3 7.0 7.0 7.0 6.6 6.4 6.4 6.3
7.6 7.7 8.0 8.1 8.1 7.5 6.9 7.2 7.1 6.8 6.8 6.8 7.2 6.9 6.6 6.5 6.7 6.6 6.6 6.5 6.8 7.2 7.0 7.2 6.9 6.9 6.9 6.8 6.5 6.6 6.5 6.1
7.3 7.7 7.8 7.9 7.8 7.2 6.2 6.5 6.8 6.4 6.3 6.2 6.4 6.5 6.6 6.6 6.2 6.3 6.4 6.5 6.6 6.7 7.2 6.9 6.8 6.7 6.7 6.4 6.5 6.3 6.2 6.1
7.6 7.8 7.8 7.6 7.4 7.2 6.0 6.4 6.2 5.9 6.0 5.9 5.9 5.9 6.1 6.2 6.0 6.1 6.3 6.3 6.3 6.7 6.7 6.3 6.5 6.5 6.4 6.3 6.3 6.1 6.0 6.0
Wind_Speed
13 17 19 19 21 20 18 19 18 19 20 19 19 18 18 16 16 17 16 14 15 15 15 15 15 15 16 17 17 17 17 15
9 13 14 14 15 19 18 18 18 19 20 19 19 19 18 17 16 16 15 15 14 14 15 14 15 15 16 17 16 15 16 14
8 7 9 11 13 18 19 19 19 19 19 19 16 17 17 16 16 17 15 14 13 12 13 13 12 14 15 15 15 15 14 13
11 9 7 11 11 15 17 18 16 16 15 15 15 16 15 15 17 16 14 13 12 12 13 12 13 14 14 15 15 14 13 12
11 11 10 9 7 8 8 11 13 14 15 15 15 13 14 14 14 12 13 11 10 12 12 12 12 11 11 12 13 12 11 11
12 12 11 7 8 6 5 6 8 8 12 14 12 8 8 8 9 11 12 9 10 10 9 9 11 12 13 11 11 10 11 13
10 11 12 8 9 6 6 5 6 9 11 14 15 8 3 7 7 10 11 10 9 7 7 8 9 10 11 9 8 9 11 13
14 13 13 10 10 8 6 8 11 10 12 13 15 15 10 7 5 6 8 10 9 9 6 5 5 7 6 9 8 11 14 16
18 16 14 13 11 9 6 9 11 7 10 14 14 15 12 10 5 4 7 9 10 10 9 9 4 6 5 6 8 12 15 17
18 15 15 15 11 8 6 9 9 9 12 14 14 15 15 10 5 4 9 8 8 4 4 4 4 4 3 4 4 11 14 15
19 18 16 15 12 9 6 8 6 9 10 12 13 15 15 11 7 8 11 7 4 4 4 3 2 3 5 5 5 7 9 12
17 15 16 14 11 9 7 6 5 9 7 10 14 13 14 12 10 8 10 4 4 3 4 4 2 2 6 6 5 4 8 6
21 18 17 14 12 12 10 8 7 4 5 11 12 12 14 12 8 7 6 4 4 4 3 3 5 3 3 2 2 4 5 4
20 20 20 16 12 11 7 9 5 6 6 8 11 11 13 12 8 6 4 4 4 3 3 2 3 4 3 2 1 1 3 4
24 23 21 18 17 10 9 7 6 3 6 5 5 10 10 13 12 8 5 3 3 3 3 4 3 4 5 3 2 3 1 2
23 23 23 19 20 16 19 13 11 5 7 6 6 12 9 11 12 11 7 4 4 3 2 2 3 4 2 5 5 3 3 2
22 21 22 19 20 16 13 11 6 8 7 9 7 5 8 12 12 11 7 4 3 4 3 3 2 3 2 2 3 3 4 3
19 21 22 21 21 20 18 17 15 12 10 9 7 6 5 7 10 10 10 7 5 4 4 4 5 4 3 3 2 2 2 3
20 23 23 22 20 20 21 23 19 18 16 11 11 8 5 6 4 6 6 9 9 8 5 5 4 4 4 3 3 3 2 2
24 23 22 23 19 18 17 18 12 12 14 11 9 8 8 8 5 7 9 11 10 9 4 4 5 4 5 4 3 2 3 3
Wind_Direction
138 139 141 146 137 141 143 127 136 140 138 132 126 121 114 112 108 100 89 85 82 72 63 59 57 56 52 48 46 43 41 38
129 131 136 139 142 137 128 140 143 143 138 133 127 121 116 110 108 103 93 88 80 73 68 60 58 53 55 52 48 43 41 41
132 129 129 132 135 138 144 152 149 145 142 138 122 119 119 114 102 108 100 96 87 77 75 66 60 52 50 51 46 39 37 36
155 143 141 138 144 153 154 163 156 148 146 140 132 130 128 124 109 107 102 99 89 86 76 68 60 54 50 50 47 39 32 29
171 155 152 150 149 148 157 147 151 151 148 148 148 142 128 119 113 103 98 90 78 76 70 66 63 58 50 49 46 44 36 31
177 160 156 153 144 150 154 137 141 143 151 147 133 118 121 124 117 113 101 96 87 77 74 66 61 55 44 45 41 40 37 37
188 167 166 160 156 155 151 145 142 146 143 155 143 123 119 116 111 104 105 102 90 77 64 55 48 39 44 46 38 37 44 50
179 180 174 167 168 161 159 148 144 149 151 157 150 140 136 124 109 99 97 100 90 82 70 57 44 35 34 37 38 51 63 65
183 177 173 173 168 161 156 151 146 142 147 152 149 146 138 134 122 102 108 102 94 82 66 58 46 40 39 36 48 58 63 61
178 178 176 170 166 157 154 146 145 142 150 144 146 147 141 127 117 114 117 97 88 73 70 54 49 58 57 43 47 60 60 57
178 178 175 165 157 151 146 148 146 142 150 139 147 145 144 128 122 121 119 100 85 86 59 72 41 73 86 66 56 61 56 60
179 177 168 160 155 150 146 144 128 142 151 144 147 144 137 123 122 122 123 110 99 89 91 49 83 90 96 79 64 63 65 59
181 171 171 163 167 164 160 165 155 135 146 147 145 144 137 128 125 123 122 121 136 143 113 72 56 3 114 51 82 71 69 54
181 179 172 174 172 171 166 154 160 148 149 139 141 144 140 130 133 127 118 115 125 135 153 143 88 11 129 106 123 126 41 39
186 181 174 173 166 149 131 122 116 129 148 141 140 143 143 134 130 126 119 115 130 111 138 148 137 40 46 130 106 219 89 333
183 178 175 171 164 164 166 171 165 157 156 147 142 139 139 136 133 133 129 123 124 115 93 118 129 138 82 44 53 107 162 114
184 175 174 170 169 162 163 157 146 138 137 134 132 118 138 139 141 136 132 126 120 112 85 71 84 112 118 127 60 56 66 103
181 177 177 170 169 163 168 161 148 146 152 149 148 142 139 133 145 135 130 128 133 124 99 92 83 81 79 98 144 152 94 87
181 177 179 174 172 168 168 159 158 160 159 160 155 149 144 132 151 142 135 133 135 129 119 115 104 107 107 95 77 75 111 90
181 179 174 175 171 169 160 158 158 161 162 156 152 157 147 132 148 142 135 135 138 126 133 106 106 103 108 91 98 96 80 71